Time,TemperatureF,DewpointF,PressureIn,WindDirection,WindDirectionDegrees,WindSpeedMPH,WindSpeedGustMPH,Humidity,HourlyPrecipIn,Conditions,Clouds,dailyrainin,SoftwareType,DateUTC
2013-03-17 00:00:00,27.4,17.9,30.09,WNW,295,8.0,12.0,67,0.00,,BKN028,0.00,VWS V14.01,2013-03-17 05:00:00,
2013-03-17 00:04:00,27.3,18.1,30.09,WNW,292,10.0,12.0,68,0.00,,OVC032,0.00,VWS V14.01,2013-03-17 05:04:00,
2013-03-17 00:05:00,27.3,18.1,30.09,WNW,298,6.0,12.0,68,0.00,,BKN028,0.00,VWS V14.01,2013-03-17 05:05:00,
2013-03-17 00:09:00,27.2,18.4,30.09,WNW,302,7.0,11.0,69,0.00,,OVC032,0.00,VWS V14.01,2013-03-17 05:09:00,
2013-03-17 00:10:00,27.2,18.4,30.09,WNW,300,3.0,13.0,69,0.00,,BKN028,0.00,VWS V14.01,2013-03-17 05:10:00,
2013-03-17 00:14:00,27.0,17.9,30.10,WNW,303,4.0,7.0,68,0.00,,OVC032,0.00,VWS V14.01,2013-03-17 05:14:00,
2013-03-17 00:15:00,27.1,18.3,30.10,NW,304,6.0,7.0,69,0.00,,BKN028,0.00,VWS V14.01,2013-03-17 05:15:00,
2013-03-17 00:19:00,26.9,18.1,30.10,West,269,4.0,9.0,69,0.00,,OVC032,0.00,VWS V14.01,2013-03-17 05:19:00,
2013-03-17 00:20:00,26.9,18.1,30.10,West,265,7.0,9.0,69,0.00,,BKN028,0.00,VWS V14.01,2013-03-17 05:20:00,
2013-03-17 00:24:00,26.8,18.3,30.10,West,264,0.0,8.0,70,0.00,,OVC032,0.00,VWS V14.01,2013-03-17 05:24:00,
2013-03-17 00:25:00,26.8,18.0,30.10,West,277,6.0,8.0,69,0.00,,BKN028,0.00,VWS V14.01,2013-03-17 05:25:00,
2013-03-17 00:29:00,26.7,18.2,30.10,WNW,290,5.0,8.0,70,0.00,,OVC032,0.00,VWS V14.01,2013-03-17 05:29:00,
2013-03-17 00:30:00,26.8,18.3,30.10,WNW,284,6.0,8.0,70,0.00,,BKN028,0.00,VWS V14.01,2013-03-17 05:30:00,
2013-03-17 00:35:00,26.5,18.0,30.10,WNW,302,3.0,9.0,70,0.00,,OVC032,0.00,VWS V14.01,2013-03-17 05:35:00,
2013-03-17 00:40:00,26.5,18.0,30.11,West,280,5.0,9.0,70,0.00,,OVC032,0.00,VWS V14.01,2013-03-17 05:40:00,
2013-03-17 00:45:00,26.5,18.0,30.11,WNW,302,4.0,9.0,70,0.00,,OVC032,0.00,VWS V14.01,2013-03-17 05:45:00,
2013-03-17 00:50:00,26.3,18.2,30.11,WNW,282,5.0,7.0,71,0.00,,OVC032,0.00,VWS V14.01,2013-03-17 05:50:00,
2013-03-17 00:55:00,26.1,17.7,30.11,WNW,284,5.0,9.0,70,0.00,,OVC032,0.00,VWS V14.01,2013-03-17 05:55:00,
2013-03-17 01:00:00,26.0,17.6,30.11,WNW,295,3.0,8.0,70,0.00,,OVC032,0.00,VWS V14.01,2013-03-17 06:00:00,
2013-03-17 01:05:00,25.9,18.1,30.11,WNW,285,1.0,8.0,72,0.00,,OVC032,0.00,VWS V14.01,2013-03-17 06:05:00,
2013-03-17 01:10:00,25.8,18.0,30.11,West,261,5.0,7.0,72,0.00,,OVC032,0.00,VWS V14.01,2013-03-17 06:10:00,
2013-03-17 01:15:00,25.6,17.2,30.11,WNW,295,5.0,7.0,70,0.00,,OVC032,0.00,VWS V14.01,2013-03-17 06:15:00,
2013-03-17 01:20:00,25.5,17.1,30.12,WNW,290,4.0,9.0,70,0.00,,OVC032,0.00,VWS V14.01,2013-03-17 06:20:00,
2013-03-17 01:25:00,25.4,17.3,30.11,NW,305,7.0,9.0,71,0.00,,OVC032,0.00,VWS V14.01,2013-03-17 06:25:00,
2013-03-17 01:30:00,25.3,16.9,30.12,WNW,292,4.0,7.0,70,0.00,,OVC032,0.00,VWS V14.01,2013-03-17 06:30:00,
2013-03-17 01:35:00,25.2,16.8,30.12,WNW,284,0.0,8.0,70,0.00,,BKN028,0.00,VWS V14.01,2013-03-17 06:35:00,
2013-03-17 01:36:00,25.2,17.1,30.12,WNW,292,6.0,8.0,71,0.00,,OVC032,0.00,VWS V14.01,2013-03-17 06:36:00,
2013-03-17 01:40:00,25.1,17.0,30.12,WNW,296,5.0,8.0,71,0.00,,BKN028,0.00,VWS V14.01,2013-03-17 06:40:00,
2013-03-17 01:41:00,25.0,16.9,30.12,NW,305,1.0,8.0,71,0.00,,OVC032,0.00,VWS V14.01,2013-03-17 06:41:00,
2013-03-17 01:45:00,24.9,16.5,30.12,WNW,286,3.0,10.0,70,0.00,,BKN028,0.00,VWS V14.01,2013-03-17 06:45:00,
2013-03-17 01:46:00,24.9,16.5,30.12,WNW,285,11.0,11.0,70,0.00,,OVC032,0.00,VWS V14.01,2013-03-17 06:46:00,
2013-03-17 01:50:00,24.8,16.4,30.12,WNW,294,9.0,11.0,70,0.00,,BKN028,0.00,VWS V14.01,2013-03-17 06:50:00,
2013-03-17 01:51:00,24.8,16.1,30.12,NW,307,5.0,11.0,69,0.00,,OVC032,0.00,VWS V14.01,2013-03-17 06:51:00,
2013-03-17 01:55:00,24.7,16.0,30.12,NW,309,7.0,12.0,69,0.00,,BKN028,0.00,VWS V14.01,2013-03-17 06:55:00,
2013-03-17 01:56:00,24.7,16.0,30.12,NW,321,4.0,12.0,69,0.00,,OVC032,0.00,VWS V14.01,2013-03-17 06:56:00,
2013-03-17 02:00:00,24.5,15.8,30.12,NW,304,7.0,9.0,69,0.00,,BKN028,0.00,VWS V14.01,2013-03-17 07:00:00,
2013-03-17 02:01:00,24.5,15.8,30.13,NW,315,8.0,11.0,69,0.00,,SCT032,0.00,VWS V14.01,2013-03-17 07:01:00,
2013-03-17 02:05:00,24.4,15.7,30.13,WNW,302,7.0,10.0,69,0.00,,BKN028,0.00,VWS V14.01,2013-03-17 07:05:00,
2013-03-17 02:06:00,24.4,15.7,30.13,NW,318,3.0,9.0,69,0.00,,SCT032,0.00,VWS V14.01,2013-03-17 07:06:00,
2013-03-17 02:10:00,24.3,15.6,30.13,WNW,298,5.0,10.0,69,0.00,,BKN028,0.00,VWS V14.01,2013-03-17 07:10:00,
2013-03-17 02:11:00,24.3,15.6,30.13,NW,311,7.0,11.0,69,0.00,,SCT032,0.00,VWS V14.01,2013-03-17 07:11:00,
2013-03-17 02:15:00,24.2,15.5,30.13,NW,319,9.0,10.0,69,0.00,,BKN028,0.00,VWS V14.01,2013-03-17 07:15:00,
2013-03-17 02:16:00,24.1,15.4,30.13,WNW,302,6.0,10.0,69,0.00,,SCT032,0.00,VWS V14.01,2013-03-17 07:16:00,
2013-03-17 02:20:00,24.1,15.4,30.13,NW,326,8.0,10.0,69,0.00,,BKN028,0.00,VWS V14.01,2013-03-17 07:20:00,
2013-03-17 02:22:00,24.0,15.3,30.13,NW,306,9.0,11.0,69,0.00,,SCT032,0.00,VWS V14.01,2013-03-17 07:22:00,
2013-03-17 02:25:00,24.0,15.0,30.13,WNW,296,7.0,11.0,68,0.00,,BKN028,0.00,VWS V14.01,2013-03-17 07:25:00,
2013-03-17 02:27:00,24.0,15.3,30.13,NW,311,6.0,9.0,69,0.00,,SCT032,0.00,VWS V14.01,2013-03-17 07:27:00,
2013-03-17 02:30:00,23.9,15.2,30.13,NW,318,7.0,11.0,69,0.00,,BKN028,0.00,VWS V14.01,2013-03-17 07:30:00,
2013-03-17 02:32:00,23.9,14.9,30.13,NW,326,7.0,10.0,68,0.00,,SCT032,0.00,VWS V14.01,2013-03-17 07:32:00,
2013-03-17 02:35:00,23.8,14.8,30.13,NW,314,7.0,10.0,68,0.00,,BKN028,0.00,VWS V14.01,2013-03-17 07:35:00,
2013-03-17 02:37:00,23.7,14.7,30.13,WNW,303,4.0,9.0,68,0.00,,SCT032,0.00,VWS V14.01,2013-03-17 07:37:00,
2013-03-17 02:40:00,23.7,14.7,30.13,NW,314,4.0,11.0,68,0.00,,BKN028,0.00,VWS V14.01,2013-03-17 07:40:00,
2013-03-17 02:42:00,23.6,14.9,30.13,NW,316,0.0,11.0,69,0.00,,SCT032,0.00,VWS V14.01,2013-03-17 07:42:00,
2013-03-17 02:45:00,23.6,14.9,30.13,NW,314,4.0,9.0,69,0.00,,BKN028,0.00,VWS V14.01,2013-03-17 07:45:00,
2013-03-17 02:47:00,23.5,14.8,30.13,NW,317,7.0,9.0,69,0.00,,SCT032,0.00,VWS V14.01,2013-03-17 07:47:00,
2013-03-17 02:50:00,23.4,14.8,30.13,NW,305,6.0,10.0,69,0.00,,BKN028,0.00,VWS V14.01,2013-03-17 07:50:00,
2013-03-17 02:52:00,23.4,14.8,30.13,NW,312,6.0,13.0,69,0.00,,SCT032,0.00,VWS V14.01,2013-03-17 07:52:00,
2013-03-17 02:55:00,23.4,14.8,30.13,WNW,294,10.0,13.0,69,0.00,,BKN028,0.00,VWS V14.01,2013-03-17 07:55:00,
2013-03-17 02:57:00,23.3,14.6,30.13,NW,306,7.0,10.0,69,0.00,,SCT032,0.00,VWS V14.01,2013-03-17 07:57:00,
2013-03-17 03:00:00,23.2,14.6,30.13,NW,309,8.0,8.0,69,0.00,,BKN028,0.00,VWS V14.01,2013-03-17 08:00:00,
2013-03-17 03:02:00,23.1,14.5,30.13,North,360,7.0,9.0,69,0.00,,FEW032,0.00,VWS V14.01,2013-03-17 08:02:00,
2013-03-17 03:05:00,23.1,14.5,30.13,NW,321,6.0,10.0,69,0.00,,BKN028,0.00,VWS V14.01,2013-03-17 08:05:00,
2013-03-17 03:07:00,23.0,14.4,30.13,NW,323,6.0,10.0,69,0.00,,FEW032,0.00,VWS V14.01,2013-03-17 08:07:00,
2013-03-17 03:10:00,23.0,14.4,30.13,NW,317,5.0,10.0,69,0.00,,FEW070,0.00,VWS V14.01,2013-03-17 08:10:00,
2013-03-17 03:12:00,22.8,14.2,30.13,NW,317,3.0,10.0,69,0.00,,FEW032,0.00,VWS V14.01,2013-03-17 08:12:00,
2013-03-17 03:15:00,22.8,14.2,30.13,NW,304,11.0,12.0,69,0.00,,BKN028,0.00,VWS V14.01,2013-03-17 08:15:00,
2013-03-17 03:17:00,22.7,14.4,30.13,NNW,342,3.0,12.0,70,0.00,,FEW032,0.00,VWS V14.01,2013-03-17 08:17:00,
2013-03-17 03:20:00,22.7,14.4,30.13,NW,311,9.0,12.0,70,0.00,,BKN028,0.00,VWS V14.01,2013-03-17 08:20:00,
2013-03-17 03:23:00,22.6,14.3,30.13,NNW,333,5.0,12.0,70,0.00,,FEW032,0.00,VWS V14.01,2013-03-17 08:23:00,
2013-03-17 03:25:00,22.6,14.3,30.13,NNW,344,7.0,11.0,70,0.00,,BKN028,0.00,VWS V14.01,2013-03-17 08:25:00,
2013-03-17 03:28:00,22.5,14.2,30.13,NW,317,6.0,12.0,70,0.00,,FEW032,0.00,VWS V14.01,2013-03-17 08:28:00,
2013-03-17 03:30:00,22.4,14.1,30.13,NW,307,7.0,12.0,70,0.00,,BKN028,0.00,VWS V14.01,2013-03-17 08:30:00,
2013-03-17 03:33:00,22.4,14.1,30.13,NNW,329,0.0,12.0,70,0.00,,FEW032,0.00,VWS V14.01,2013-03-17 08:33:00,
2013-03-17 03:35:00,22.4,14.1,30.13,NW,309,6.0,12.0,70,0.00,,BKN028,0.00,VWS V14.01,2013-03-17 08:35:00,
2013-03-17 03:38:00,22.3,14.0,30.13,NW,323,8.0,11.0,70,0.00,,FEW032,0.00,VWS V14.01,2013-03-17 08:38:00,
2013-03-17 03:40:00,22.3,14.0,30.13,North,5,0.0,11.0,70,0.00,,BKN028,0.00,VWS V14.01,2013-03-17 08:40:00,
2013-03-17 03:43:00,22.2,13.9,30.13,NW,307,3.0,11.0,70,0.00,,FEW032,0.00,VWS V14.01,2013-03-17 08:43:00,
2013-03-17 03:45:00,22.2,13.9,30.13,NW,304,7.0,11.0,70,0.00,,BKN028,0.00,VWS V14.01,2013-03-17 08:45:00,
2013-03-17 03:48:00,22.1,15.7,30.13,NW,325,9.0,10.0,76,0.00,,FEW032,0.00,VWS V14.01,2013-03-17 08:48:00,
2013-03-17 03:50:00,22.0,13.7,30.13,NW,320,8.0,10.0,70,0.00,,BKN028,0.00,VWS V14.01,2013-03-17 08:50:00,
2013-03-17 03:53:00,21.9,13.6,30.13,NW,317,6.0,10.0,70,0.00,,FEW032,0.00,VWS V14.01,2013-03-17 08:53:00,
2013-03-17 03:55:00,21.9,13.6,30.13,NNW,346,4.0,11.0,70,0.00,,BKN028,0.00,VWS V14.01,2013-03-17 08:55:00,
2013-03-17 03:58:00,21.9,13.6,30.13,NW,309,7.0,13.0,70,0.00,,FEW032,0.00,VWS V14.01,2013-03-17 08:58:00,
2013-03-17 04:00:00,21.9,13.6,30.13,WNW,303,7.0,13.0,70,0.00,,BKN028,0.00,VWS V14.01,2013-03-17 09:00:00,
2013-03-17 04:03:00,21.8,13.9,30.13,NW,316,4.0,11.0,71,0.00,,SCT220,0.00,VWS V14.01,2013-03-17 09:03:00,
2013-03-17 04:05:00,21.7,13.8,30.13,NNW,336,5.0,11.0,71,0.00,,BKN028,0.00,VWS V14.01,2013-03-17 09:05:00,
2013-03-17 04:09:00,21.7,13.8,30.13,North,355,6.0,11.0,71,0.00,,SCT220,0.00,VWS V14.01,2013-03-17 09:09:00,
2013-03-17 04:10:00,21.7,13.8,30.13,NNW,331,5.0,11.0,71,0.00,,BKN028,0.00,VWS V14.01,2013-03-17 09:10:00,
2013-03-17 04:14:00,21.6,13.7,30.14,NW,305,7.0,11.0,71,0.00,,SCT220,0.00,VWS V14.01,2013-03-17 09:14:00,
2013-03-17 04:15:00,21.6,13.7,30.14,NW,305,7.0,11.0,71,0.00,,BKN028,0.00,VWS V14.01,2013-03-17 09:15:00,
2013-03-17 04:19:00,21.6,13.7,30.14,NW,316,8.0,14.0,71,0.00,,SCT220,0.00,VWS V14.01,2013-03-17 09:19:00,
2013-03-17 04:20:00,21.6,13.7,30.14,NW,316,8.0,14.0,71,0.00,,BKN028,0.00,VWS V14.01,2013-03-17 09:20:00,
2013-03-17 04:24:00,21.5,13.2,30.14,North,5,8.0,12.0,70,0.00,,SCT220,0.00,VWS V14.01,2013-03-17 09:24:00,
2013-03-17 04:25:00,21.5,13.2,30.14,North,5,8.0,12.0,70,0.00,,BKN028,0.00,VWS V14.01,2013-03-17 09:25:00,
2013-03-17 04:29:00,21.4,13.1,30.14,NNE,12,12.0,13.0,70,0.00,,SCT220,0.00,VWS V14.01,2013-03-17 09:29:00,
2013-03-17 04:30:00,21.4,13.1,30.14,NNE,12,12.0,13.0,70,0.00,,BKN028,0.00,VWS V14.01,2013-03-17 09:30:00,
2013-03-17 04:34:00,21.2,13.0,30.14,NW,317,5.0,11.0,70,0.00,,SCT220,0.00,VWS V14.01,2013-03-17 09:34:00,
2013-03-17 04:35:00,21.2,13.0,30.14,NW,317,5.0,11.0,70,0.00,,BKN028,0.00,VWS V14.01,2013-03-17 09:35:00,
2013-03-17 04:40:00,21.1,12.9,30.14,NNW,346,6.0,11.0,70,0.00,,SCT220,0.00,VWS V14.01,2013-03-17 09:40:00,
2013-03-17 04:45:00,21.0,13.1,30.14,North,5,5.0,12.0,71,0.00,,SCT220,0.00,VWS V14.01,2013-03-17 09:45:00,
2013-03-17 04:50:00,20.9,13.0,30.14,NNW,346,9.0,13.0,71,0.00,,SCT220,0.00,VWS V14.01,2013-03-17 09:50:00,
2013-03-17 04:55:00,20.8,12.9,30.14,NNW,331,4.0,14.0,71,0.00,,SCT220,0.00,VWS V14.01,2013-03-17 09:55:00,
2013-03-17 05:00:00,20.7,12.5,30.13,NNE,12,9.0,13.0,70,0.00,,SCT220,0.00,VWS V14.01,2013-03-17 10:00:00,
2013-03-17 05:05:00,20.6,12.4,30.14,NNE,19,8.0,13.0,70,0.00,,SCT220,0.00,VWS V14.01,2013-03-17 10:05:00,
2013-03-17 05:10:00,20.5,12.3,30.14,NNW,348,8.0,13.0,70,0.00,,SCT220,0.00,VWS V14.01,2013-03-17 10:10:00,
2013-03-17 05:15:00,20.4,12.2,30.14,North,5,10.0,14.0,70,0.00,,SCT220,0.00,VWS V14.01,2013-03-17 10:15:00,
2013-03-17 05:20:00,20.3,11.8,30.14,NE,55,10.0,16.0,69,0.00,,BKN028,0.00,VWS V14.01,2013-03-17 10:20:00,
2013-03-17 05:21:00,20.3,11.8,30.14,NNW,344,9.0,16.0,69,0.00,,SCT220,0.00,VWS V14.01,2013-03-17 10:21:00,
2013-03-17 05:25:00,20.2,11.7,30.15,NNW,338,11.0,15.0,69,0.00,,BKN028,0.00,VWS V14.01,2013-03-17 10:25:00,
2013-03-17 05:26:00,20.2,11.7,30.15,North,10,7.0,13.0,69,0.00,,SCT220,0.00,VWS V14.01,2013-03-17 10:26:00,
2013-03-17 05:30:00,20.1,11.2,30.15,NNW,328,6.0,16.0,68,0.00,,BKN028,0.00,VWS V14.01,2013-03-17 10:30:00,
2013-03-17 05:31:00,20.1,11.2,30.15,NNW,327,10.0,16.0,68,0.00,,SCT220,0.00,VWS V14.01,2013-03-17 10:31:00,
2013-03-17 05:35:00,20.0,11.1,30.15,North,360,11.0,13.0,68,0.00,,BKN028,0.00,VWS V14.01,2013-03-17 10:35:00,
2013-03-17 05:36:00,19.9,11.1,30.15,North,9,14.0,14.0,68,0.00,,SCT220,0.00,VWS V14.01,2013-03-17 10:36:00,
2013-03-17 05:40:00,19.8,11.0,30.15,North,355,9.0,15.0,68,0.00,,BKN028,0.00,VWS V14.01,2013-03-17 10:40:00,
2013-03-17 05:41:00,19.8,11.0,30.15,NNW,329,7.0,14.0,68,0.00,,SCT220,0.00,VWS V14.01,2013-03-17 10:41:00,
2013-03-17 05:45:00,19.7,10.9,30.15,NNW,345,6.0,13.0,68,0.00,,BKN028,0.00,VWS V14.01,2013-03-17 10:45:00,
2013-03-17 05:46:00,19.7,10.9,30.15,North,5,7.0,13.0,68,0.00,,SCT220,0.00,VWS V14.01,2013-03-17 10:46:00,
2013-03-17 05:50:00,19.6,11.1,30.15,NNW,348,10.0,13.0,69,0.00,,BKN028,0.00,VWS V14.01,2013-03-17 10:50:00,
2013-03-17 05:51:00,19.5,11.0,30.16,NNW,332,7.0,13.0,69,0.00,,SCT220,0.00,VWS V14.01,2013-03-17 10:51:00,
2013-03-17 05:55:00,19.5,11.0,30.16,NNW,327,12.0,13.0,69,0.00,,BKN028,0.00,VWS V14.01,2013-03-17 10:55:00,
2013-03-17 05:56:00,19.4,10.9,30.16,NNW,338,7.0,12.0,69,0.00,,SCT220,0.00,VWS V14.01,2013-03-17 10:56:00,
2013-03-17 06:00:00,19.4,10.9,30.16,North,360,10.0,13.0,69,0.00,,BKN028,0.00,VWS V14.01,2013-03-17 11:00:00,
2013-03-17 06:01:00,19.4,10.9,30.16,NNW,331,6.0,14.0,69,0.00,,SCT200,0.00,VWS V14.01,2013-03-17 11:01:00,
2013-03-17 06:05:00,19.3,10.8,30.16,NNW,332,9.0,11.0,69,0.00,,BKN028,0.00,VWS V14.01,2013-03-17 11:05:00,
2013-03-17 06:07:00,19.3,10.8,30.16,North,5,9.0,12.0,69,0.00,,SCT200,0.00,VWS V14.01,2013-03-17 11:07:00,
2013-03-17 06:10:00,19.3,10.8,30.16,NW,326,8.0,14.0,69,0.00,,BKN028,0.00,VWS V14.01,2013-03-17 11:10:00,
2013-03-17 06:12:00,19.2,11.0,30.16,North,355,8.0,14.0,70,0.00,,SCT200,0.00,VWS V14.01,2013-03-17 11:12:00,
2013-03-17 06:15:00,19.1,10.9,30.16,North,355,8.0,13.0,70,0.00,,BKN028,0.00,VWS V14.01,2013-03-17 11:15:00,
2013-03-17 06:17:00,19.1,10.9,30.16,NNE,15,15.0,16.0,70,0.00,,SCT200,0.00,VWS V14.01,2013-03-17 11:17:00,
2013-03-17 06:20:00,19.1,10.9,30.16,North,360,7.0,16.0,70,0.00,,BKN028,0.00,VWS V14.01,2013-03-17 11:20:00,
2013-03-17 06:22:00,19.0,11.2,30.16,NNE,20,9.0,12.0,71,0.00,,SCT200,0.00,VWS V14.01,2013-03-17 11:22:00,
2013-03-17 06:25:00,19.0,11.2,30.16,North,5,4.0,12.0,71,0.00,,BKN028,0.00,VWS V14.01,2013-03-17 11:25:00,
2013-03-17 06:27:00,18.9,11.1,30.17,North,11,7.0,14.0,71,0.00,,SCT200,0.00,VWS V14.01,2013-03-17 11:27:00,
2013-03-17 06:30:00,18.9,11.1,30.17,NNW,348,10.0,16.0,71,0.00,,BKN028,0.00,VWS V14.01,2013-03-17 11:30:00,
2013-03-17 06:32:00,18.9,11.4,30.17,North,5,7.0,13.0,72,0.00,,SCT200,0.00,VWS V14.01,2013-03-17 11:32:00,
2013-03-17 06:35:00,18.8,11.3,30.17,NNW,344,8.0,12.0,72,0.00,,BKN028,0.00,VWS V14.01,2013-03-17 11:35:00,
2013-03-17 06:37:00,18.8,11.6,30.17,NW,323,10.0,13.0,73,0.00,,SCT200,0.00,VWS V14.01,2013-03-17 11:37:00,
2013-03-17 06:40:00,18.8,11.6,30.17,NNW,340,4.0,13.0,73,0.00,,BKN028,0.00,VWS V14.01,2013-03-17 11:40:00,
2013-03-17 06:42:00,18.8,11.6,30.17,North,9,3.0,12.0,73,0.00,,SCT200,0.00,VWS V14.01,2013-03-17 11:42:00,
2013-03-17 06:45:00,18.7,11.5,30.17,NNW,336,9.0,13.0,73,0.00,,BKN028,0.00,VWS V14.01,2013-03-17 11:45:00,
2013-03-17 06:47:00,18.6,11.4,30.17,North,5,12.0,16.0,73,0.00,,SCT200,0.00,VWS V14.01,2013-03-17 11:47:00,
2013-03-17 06:50:00,18.6,11.4,30.17,North,5,9.0,14.0,73,0.00,,BKN028,0.00,VWS V14.01,2013-03-17 11:50:00,
2013-03-17 06:52:00,18.5,11.3,30.18,North,9,8.0,14.0,73,0.00,,SCT200,0.00,VWS V14.01,2013-03-17 11:52:00,
2013-03-17 06:55:00,18.5,11.3,30.17,North,360,11.0,12.0,73,0.00,,BKN028,0.00,VWS V14.01,2013-03-17 11:55:00,
2013-03-17 06:57:00,18.4,11.5,30.18,North,10,8.0,12.0,74,0.00,,SCT200,0.00,VWS V14.01,2013-03-17 11:57:00,
2013-03-17 07:00:00,18.3,11.4,30.18,NNW,329,10.0,12.0,74,0.00,,BKN028,0.00,VWS V14.01,2013-03-17 12:00:00,
2013-03-17 07:03:00,18.2,11.0,30.18,North,360,8.0,12.0,73,0.00,,BKN033,0.00,VWS V14.01,2013-03-17 12:03:00,
2013-03-17 07:05:00,18.2,11.0,30.18,NNE,26,2.0,12.0,73,0.00,,BKN028,0.00,VWS V14.01,2013-03-17 12:05:00,
2013-03-17 07:08:00,18.2,11.0,30.18,NNW,338,10.0,15.0,73,0.00,,BKN033,0.00,VWS V14.01,2013-03-17 12:08:00,
2013-03-17 07:10:00,18.1,10.9,30.18,NNW,348,10.0,15.0,73,0.00,,BKN028,0.00,VWS V14.01,2013-03-17 12:10:00,
2013-03-17 07:13:00,18.0,10.5,30.18,NNW,348,6.0,13.0,72,0.00,,BKN033,0.00,VWS V14.01,2013-03-17 12:13:00,
2013-03-17 07:15:00,18.0,10.5,30.19,NNW,344,3.0,11.0,72,0.00,,BKN028,0.00,VWS V14.01,2013-03-17 12:15:00,
2013-03-17 07:18:00,18.0,10.5,30.19,North,5,12.0,14.0,72,0.00,,BKN033,0.00,VWS V14.01,2013-03-17 12:18:00,
2013-03-17 07:20:00,17.9,10.1,30.19,NNW,348,6.0,12.0,71,0.00,,BKN028,0.00,VWS V14.01,2013-03-17 12:20:00,
2013-03-17 07:23:00,17.9,10.1,30.19,NNW,346,5.0,11.0,71,0.00,,BKN033,0.00,VWS V14.01,2013-03-17 12:23:00,
2013-03-17 07:25:00,17.9,10.1,30.19,NNW,329,8.0,12.0,71,0.00,,BKN028,0.00,VWS V14.01,2013-03-17 12:25:00,
2013-03-17 07:28:00,17.9,9.8,30.19,North,355,8.0,11.0,70,0.00,,BKN033,0.00,VWS V14.01,2013-03-17 12:28:00,
2013-03-17 07:30:00,17.9,9.8,30.19,NW,319,8.0,11.0,70,0.00,,BKN028,0.00,VWS V14.01,2013-03-17 12:30:00,
2013-03-17 07:33:00,17.9,9.8,30.20,NNE,22,8.0,9.0,70,0.00,,BKN033,0.00,VWS V14.01,2013-03-17 12:33:00,
2013-03-17 07:35:00,17.8,9.7,30.20,NNW,330,7.0,11.0,70,0.00,,BKN028,0.00,VWS V14.01,2013-03-17 12:35:00,
2013-03-17 07:38:00,17.9,9.5,30.20,North,355,8.0,9.0,69,0.00,,BKN033,0.00,VWS V14.01,2013-03-17 12:38:00,
2013-03-17 07:40:00,17.9,9.5,30.20,North,10,8.0,9.0,69,0.00,,BKN028,0.00,VWS V14.01,2013-03-17 12:40:00,
2013-03-17 07:44:00,17.8,9.4,30.20,NNW,343,8.0,10.0,69,0.00,,BKN033,0.00,VWS V14.01,2013-03-17 12:44:00,
2013-03-17 07:45:00,17.9,9.5,30.20,NNW,338,6.0,10.0,69,0.00,,BKN028,0.00,VWS V14.01,2013-03-17 12:45:00,
2013-03-17 07:49:00,17.9,9.5,30.20,North,360,8.0,11.0,69,0.00,,BKN033,0.00,VWS V14.01,2013-03-17 12:49:00,
2013-03-17 07:50:00,17.9,9.5,30.20,NW,323,8.0,11.0,69,0.00,,BKN028,0.00,VWS V14.01,2013-03-17 12:50:00,
2013-03-17 07:54:00,18.0,9.6,30.20,NNW,337,7.0,10.0,69,0.00,,BKN033,0.00,VWS V14.01,2013-03-17 12:54:00,
2013-03-17 07:55:00,17.9,9.5,30.20,North,360,7.0,10.0,69,0.00,,BKN028,0.00,VWS V14.01,2013-03-17 12:55:00,
2013-03-17 07:59:00,18.0,9.6,30.21,NNW,336,7.0,8.0,69,0.00,,BKN033,0.00,VWS V14.01,2013-03-17 12:59:00,
2013-03-17 08:00:00,18.0,9.6,30.21,NNW,336,7.0,8.0,69,0.00,,BKN028,0.00,VWS V14.01,2013-03-17 13:00:00,
2013-03-17 08:04:00,18.0,9.6,30.21,NNW,336,10.0,10.0,69,0.00,,BKN033,0.00,VWS V14.01,2013-03-17 13:04:00,
2013-03-17 08:05:00,18.0,9.6,30.21,NNW,336,10.0,10.0,69,0.00,,BKN028,0.00,VWS V14.01,2013-03-17 13:05:00,
2013-03-17 08:09:00,18.1,9.7,30.21,North,350,8.0,9.0,69,0.00,,BKN033,0.00,VWS V14.01,2013-03-17 13:09:00,
2013-03-17 08:10:00,18.1,9.7,30.21,North,350,8.0,9.0,69,0.00,,BKN028,0.00,VWS V14.01,2013-03-17 13:10:00,
2013-03-17 08:14:00,18.1,9.7,30.21,North,355,3.0,9.0,69,0.00,,BKN033,0.00,VWS V14.01,2013-03-17 13:14:00,
2013-03-17 08:15:00,18.1,9.7,30.21,North,355,3.0,9.0,69,0.00,,BKN028,0.00,VWS V14.01,2013-03-17 13:15:00,
2013-03-17 08:19:00,18.2,10.1,30.22,NNW,340,2.0,10.0,70,0.00,,BKN033,0.00,VWS V14.01,2013-03-17 13:19:00,
2013-03-17 08:20:00,18.2,10.1,30.22,NNW,340,2.0,10.0,70,0.00,,BKN028,0.00,VWS V14.01,2013-03-17 13:20:00,
2013-03-17 08:24:00,18.4,10.3,30.22,NNW,329,5.0,8.0,70,0.00,,BKN033,0.00,VWS V14.01,2013-03-17 13:24:00,
2013-03-17 08:25:00,18.4,10.3,30.22,NNW,329,5.0,8.0,70,0.00,,BKN028,0.00,VWS V14.01,2013-03-17 13:25:00,
2013-03-17 08:29:00,18.5,10.4,30.22,North,360,6.0,10.0,70,0.00,,BKN033,0.00,VWS V14.01,2013-03-17 13:29:00,
2013-03-17 08:30:00,18.5,10.4,30.22,North,5,5.0,10.0,70,0.00,,BKN028,0.00,VWS V14.01,2013-03-17 13:30:00,
2013-03-17 08:35:00,18.6,10.5,30.22,North,10,6.0,9.0,70,0.00,,BKN033,0.00,VWS V14.01,2013-03-17 13:35:00,
2013-03-17 08:40:00,18.7,10.9,30.22,NNW,344,3.0,9.0,71,0.00,,BKN033,0.00,VWS V14.01,2013-03-17 13:40:00,
2013-03-17 08:45:00,18.9,11.1,30.23,NNW,342,6.0,11.0,71,0.00,,BKN033,0.00,VWS V14.01,2013-03-17 13:45:00,
2013-03-17 08:50:00,19.1,11.3,30.23,North,350,7.0,10.0,71,0.00,,BKN033,0.00,VWS V14.01,2013-03-17 13:50:00,
2013-03-17 08:55:00,19.3,11.8,30.23,NNW,331,5.0,11.0,72,0.00,,BKN033,0.00,VWS V14.01,2013-03-17 13:55:00,
2013-03-17 09:00:00,19.7,12.1,30.23,NW,326,5.0,10.0,72,0.00,,BKN033,0.00,VWS V14.01,2013-03-17 14:00:00,
2013-03-17 09:05:00,19.8,12.2,30.23,North,5,5.0,11.0,72,0.00,,OVC036,0.00,VWS V14.01,2013-03-17 14:05:00,
2013-03-17 09:10:00,20.1,12.9,30.23,North,355,7.0,9.0,73,0.00,,OVC036,0.00,VWS V14.01,2013-03-17 14:10:00,
2013-03-17 09:15:00,20.2,12.9,30.22,NNW,331,8.0,9.0,73,0.00,,OVC036,0.00,VWS V14.01,2013-03-17 14:15:00,
2013-03-17 09:20:00,20.6,13.3,30.22,NNE,32,6.0,11.0,73,0.00,,OVC036,0.00,VWS V14.01,2013-03-17 14:20:00,
2013-03-17 09:25:00,20.7,13.4,30.23,NNE,26,6.0,10.0,73,0.00,,OVC036,0.00,VWS V14.01,2013-03-17 14:25:00,
2013-03-17 09:30:00,20.7,13.4,30.23,North,355,1.0,10.0,73,0.00,,BKN028,0.00,VWS V14.01,2013-03-17 14:30:00,
2013-03-17 09:31:00,20.7,13.4,30.23,North,351,5.0,9.0,73,0.00,,OVC036,0.00,VWS V14.01,2013-03-17 14:31:00,
2013-03-17 09:35:00,20.8,13.5,30.23,NNW,339,4.0,9.0,73,0.00,,BKN028,0.00,VWS V14.01,2013-03-17 14:35:00,
2013-03-17 09:36:00,20.8,13.5,30.23,NNW,333,4.0,9.0,73,0.00,,OVC036,0.00,VWS V14.01,2013-03-17 14:36:00,
2013-03-17 09:40:00,20.9,13.9,30.23,NNW,335,5.0,8.0,74,0.00,,BKN028,0.00,VWS V14.01,2013-03-17 14:40:00,
2013-03-17 09:41:00,21.0,14.0,30.23,NNW,338,3.0,8.0,74,0.00,,OVC036,0.00,VWS V14.01,2013-03-17 14:41:00,
2013-03-17 09:45:00,21.1,14.1,30.23,NNW,344,4.0,8.0,74,0.00,,BKN028,0.00,VWS V14.01,2013-03-17 14:45:00,
2013-03-17 09:46:00,21.2,14.2,30.23,North,360,5.0,8.0,74,0.00,,OVC036,0.00,VWS V14.01,2013-03-17 14:46:00,
2013-03-17 09:50:00,21.5,14.5,30.23,North,355,1.0,8.0,74,0.00,,BKN028,0.00,VWS V14.01,2013-03-17 14:50:00,
2013-03-17 09:51:00,21.7,14.7,30.23,North,355,1.0,9.0,74,0.00,,OVC036,0.00,VWS V14.01,2013-03-17 14:51:00,
2013-03-17 09:55:00,22.0,15.0,30.23,NNW,329,5.0,8.0,74,0.00,,BKN028,0.00,VWS V14.01,2013-03-17 14:55:00,
2013-03-17 09:56:00,22.1,15.1,30.23,NW,325,7.0,8.0,74,0.00,,OVC036,0.00,VWS V14.01,2013-03-17 14:56:00,
2013-03-17 10:00:00,22.0,14.7,30.23,NNW,339,5.0,9.0,73,0.00,,BKN028,0.00,VWS V14.01,2013-03-17 15:00:00,
2013-03-17 10:01:00,22.0,14.7,30.23,NNW,347,6.0,9.0,73,0.00,,BKN036,0.00,VWS V14.01,2013-03-17 15:01:00,
2013-03-17 10:05:00,22.2,15.2,30.24,NNW,340,4.0,9.0,74,0.00,,BKN028,0.00,VWS V14.01,2013-03-17 15:05:00,
2013-03-17 10:06:00,22.3,15.3,30.23,NNW,339,3.0,8.0,74,0.00,,BKN036,0.00,VWS V14.01,2013-03-17 15:06:00,
2013-03-17 10:10:00,22.5,15.2,30.24,NNW,338,6.0,8.0,73,0.00,,BKN028,0.00,VWS V14.01,2013-03-17 15:10:00,
2013-03-17 10:11:00,22.6,15.3,30.24,NNW,340,1.0,8.0,73,0.00,,BKN036,0.00,VWS V14.01,2013-03-17 15:11:00,
2013-03-17 10:15:00,22.8,15.5,30.24,NNW,340,0.0,4.0,73,0.00,,BKN028,0.00,VWS V14.01,2013-03-17 15:15:00,
2013-03-17 10:16:00,23.0,15.6,30.23,NNW,337,3.0,5.0,73,0.00,,BKN036,0.00,VWS V14.01,2013-03-17 15:16:00,
2013-03-17 10:20:00,23.3,16.2,30.24,NNE,19,5.0,9.0,74,0.00,,BKN028,0.00,VWS V14.01,2013-03-17 15:20:00,
2013-03-17 10:22:00,23.8,16.7,30.24,NE,43,5.0,12.0,74,0.00,,BKN036,0.00,VWS V14.01,2013-03-17 15:22:00,
2013-03-17 10:25:00,24.2,17.1,30.24,NNE,33,6.0,12.0,74,0.00,,BKN028,0.00,VWS V14.01,2013-03-17 15:25:00,
2013-03-17 10:27:00,24.5,17.1,30.24,NE,34,7.0,10.0,73,0.00,,BKN036,0.00,VWS V14.01,2013-03-17 15:27:00,
2013-03-17 10:30:00,24.6,17.2,30.24,NNE,24,12.0,14.0,73,0.00,,BKN028,0.00,VWS V14.01,2013-03-17 15:30:00,
2013-03-17 10:32:00,24.6,16.9,30.24,NNE,26,7.0,14.0,72,0.00,,BKN036,0.00,VWS V14.01,2013-03-17 15:32:00,
2013-03-17 10:35:00,24.6,16.9,30.24,North,10,10.0,11.0,72,0.00,,BKN028,0.00,VWS V14.01,2013-03-17 15:35:00,
2013-03-17 10:37:00,24.5,16.5,30.24,NNE,16,0.0,11.0,71,0.00,,BKN036,0.00,VWS V14.01,2013-03-17 15:37:00,
2013-03-17 10:40:00,24.7,17.0,30.24,NE,55,1.0,10.0,72,0.00,,BKN028,0.00,VWS V14.01,2013-03-17 15:40:00,
2013-03-17 10:42:00,24.9,17.2,30.24,NNW,336,4.0,13.0,72,0.00,,BKN036,0.00,VWS V14.01,2013-03-17 15:42:00,
2013-03-17 10:45:00,25.0,17.3,30.24,NNE,14,7.0,13.0,72,0.00,,BKN028,0.00,VWS V14.01,2013-03-17 15:45:00,
2013-03-17 10:47:00,25.1,17.4,30.24,NNE,17,1.0,11.0,72,0.00,,BKN036,0.00,VWS V14.01,2013-03-17 15:47:00,
2013-03-17 10:50:00,25.3,17.5,30.24,NNE,29,0.0,9.0,72,0.00,,BKN028,0.00,VWS V14.01,2013-03-17 15:50:00,
2013-03-17 10:52:00,25.2,17.1,30.24,NE,40,8.0,13.0,71,0.00,,BKN036,0.00,VWS V14.01,2013-03-17 15:52:00,
2013-03-17 10:55:00,25.2,17.1,30.24,NNE,32,3.0,13.0,71,0.00,,BKN028,0.00,VWS V14.01,2013-03-17 15:55:00,
2013-03-17 10:58:00,25.0,16.9,30.24,NNE,23,7.0,12.0,71,0.00,,BKN036,0.00,VWS V14.01,2013-03-17 15:58:00,
2013-03-17 11:00:00,24.9,16.8,30.24,North,9,10.0,12.0,71,0.00,,BKN028,0.00,VWS V14.01,2013-03-17 16:00:00,
2013-03-17 11:03:00,25.1,17.7,30.24,NE,54,8.0,12.0,73,0.00,,OVC036,0.00,VWS V14.01,2013-03-17 16:03:00,
2013-03-17 11:05:00,25.1,17.7,30.24,NNE,24,1.0,12.0,73,0.00,,BKN028,0.00,VWS V14.01,2013-03-17 16:05:00,
2013-03-17 11:08:00,25.2,18.1,30.24,NE,34,8.0,11.0,74,0.00,,OVC036,0.00,VWS V14.01,2013-03-17 16:08:00,
2013-03-17 11:10:00,25.4,18.6,30.24,NE,35,16.0,16.0,75,0.00,,BKN028,0.00,VWS V14.01,2013-03-17 16:10:00,
2013-03-17 11:13:00,26.0,18.5,30.24,NE,40,10.0,16.0,73,0.00,,OVC036,0.00,VWS V14.01,2013-03-17 16:13:00,
2013-03-17 11:15:00,26.0,18.2,30.24,NE,35,13.0,15.0,72,0.00,,BKN028,0.00,VWS V14.01,2013-03-17 16:15:00,
2013-03-17 11:18:00,26.2,18.4,30.24,NE,55,11.0,14.0,72,0.00,,OVC036,0.00,VWS V14.01,2013-03-17 16:18:00,
2013-03-17 11:20:00,26.2,18.4,30.24,NNE,23,8.0,15.0,72,0.00,,BKN028,0.00,VWS V14.01,2013-03-17 16:20:00,
2013-03-17 11:23:00,26.2,18.1,30.24,SE,139,6.0,15.0,71,0.00,,OVC036,0.00,VWS V14.01,2013-03-17 16:23:00,
2013-03-17 11:25:00,26.2,18.4,30.24,NE,38,8.0,15.0,72,0.00,,BKN028,0.00,VWS V14.01,2013-03-17 16:25:00,
2013-03-17 11:28:00,26.5,18.7,30.24,North,360,1.0,14.0,72,0.00,,OVC036,0.00,VWS V14.01,2013-03-17 16:28:00,
2013-03-17 11:30:00,26.6,19.1,30.24,North,5,0.0,14.0,73,0.00,,BKN028,0.00,VWS V14.01,2013-03-17 16:30:00,
2013-03-17 11:33:00,26.9,18.8,30.24,ENE,61,4.0,11.0,71,0.00,,OVC036,0.00,VWS V14.01,2013-03-17 16:33:00,
2013-03-17 11:35:00,26.9,18.8,30.24,East,81,5.0,11.0,71,0.00,,BKN028,0.00,VWS V14.01,2013-03-17 16:35:00,
2013-03-17 11:39:00,26.9,18.8,30.24,East,82,5.0,14.0,71,0.00,,OVC036,0.00,VWS V14.01,2013-03-17 16:39:00,
2013-03-17 11:40:00,26.9,18.8,30.24,ENE,67,13.0,14.0,71,0.00,,BKN028,0.00,VWS V14.01,2013-03-17 16:40:00,
2013-03-17 11:44:00,26.5,18.4,30.24,ENE,59,2.0,14.0,71,0.00,,OVC036,0.00,VWS V14.01,2013-03-17 16:44:00,
2013-03-17 11:45:00,26.5,18.4,30.24,NE,36,5.0,14.0,71,0.00,,BKN028,0.00,VWS V14.01,2013-03-17 16:45:00,
2013-03-17 11:49:00,26.5,18.7,30.24,ENE,59,5.0,14.0,72,0.00,,OVC036,0.00,VWS V14.01,2013-03-17 16:49:00,
2013-03-17 11:50:00,26.5,18.7,30.24,NE,36,12.0,15.0,72,0.00,,BKN028,0.00,VWS V14.01,2013-03-17 16:50:00,
2013-03-17 11:54:00,26.6,18.5,30.24,ENE,58,7.0,15.0,71,0.00,,OVC036,0.00,VWS V14.01,2013-03-17 16:54:00,
2013-03-17 11:55:00,26.7,18.6,30.24,ENE,72,9.0,15.0,71,0.00,,BKN028,0.00,VWS V14.01,2013-03-17 16:55:00,
2013-03-17 11:59:00,26.9,19.4,30.24,East,86,8.0,13.0,73,0.00,,OVC036,0.00,VWS V14.01,2013-03-17 16:59:00,
2013-03-17 12:00:00,26.9,19.4,30.24,ENE,74,5.0,13.0,73,0.00,,BKN028,0.00,VWS V14.01,2013-03-17 17:00:00,
2013-03-17 12:04:00,26.8,19.0,30.24,ENE,63,11.0,12.0,72,0.00,,BKN028,0.00,VWS V14.01,2013-03-17 17:04:00,
2013-03-17 12:05:00,26.8,19.0,30.24,ENE,63,11.0,12.0,72,0.00,,BKN028,0.00,VWS V14.01,2013-03-17 17:05:00,
2013-03-17 12:09:00,26.6,18.5,30.24,ENE,59,4.0,13.0,71,0.00,,BKN028,0.00,VWS V14.01,2013-03-17 17:09:00,
2013-03-17 12:10:00,26.6,18.5,30.24,ENE,59,4.0,13.0,71,0.00,,BKN028,0.00,VWS V14.01,2013-03-17 17:10:00,
2013-03-17 12:15:00,26.6,18.5,30.23,ENE,68,7.0,14.0,71,0.00,,BKN028,0.00,VWS V14.01,2013-03-17 17:15:00,
2013-03-17 12:20:00,26.7,18.9,30.23,ENE,68,5.0,12.0,72,0.00,,BKN028,0.00,VWS V14.01,2013-03-17 17:20:00,
2013-03-17 12:25:00,26.8,19.0,30.23,ENE,68,6.0,13.0,72,0.00,,BKN028,0.00,VWS V14.01,2013-03-17 17:25:00,
2013-03-17 12:30:00,26.6,18.5,30.22,East,90,6.0,11.0,71,0.00,,BKN028,0.00,VWS V14.01,2013-03-17 17:30:00,
2013-03-17 12:35:00,26.6,18.1,30.23,NE,45,6.0,13.0,70,0.00,,BKN028,0.00,VWS V14.01,2013-03-17 17:35:00,
2013-03-17 12:40:00,26.5,17.7,30.23,NE,45,7.0,17.0,69,0.00,,BKN028,0.00,VWS V14.01,2013-03-17 17:40:00,
2013-03-17 12:45:00,26.5,17.7,30.22,NE,45,5.0,11.0,69,0.00,,BKN028,0.00,VWS V14.01,2013-03-17 17:45:00,
2013-03-17 12:50:00,26.7,17.9,30.22,NE,45,5.0,11.0,69,0.00,,BKN028,0.00,VWS V14.01,2013-03-17 17:50:00,
2013-03-17 12:55:00,26.7,17.9,30.22,NE,45,6.0,12.0,69,0.00,,BKN028,0.00,VWS V14.01,2013-03-17 17:55:00,
2013-03-17 13:00:00,26.7,18.2,30.22,East,90,8.0,15.0,70,0.00,,BKN028,0.00,VWS V14.01,2013-03-17 18:00:00,
2013-03-17 13:05:00,26.7,18.2,30.22,East,90,7.0,15.0,70,0.00,,BKN028,0.00,VWS V14.01,2013-03-17 18:05:00,
2013-03-17 13:10:00,27.0,17.9,30.22,East,90,8.0,13.0,68,0.00,,BKN028,0.00,VWS V14.01,2013-03-17 18:10:00,
2013-03-17 13:15:00,27.0,17.9,30.22,East,90,8.0,13.0,68,0.00,,BKN028,0.00,VWS V14.01,2013-03-17 18:15:00,
2013-03-17 13:20:00,27.0,18.2,30.22,East,90,6.0,13.0,69,0.00,,BKN028,0.00,VWS V14.01,2013-03-17 18:20:00,
2013-03-17 13:25:00,27.3,18.1,30.22,ENE,68,6.0,12.0,68,0.00,,BKN028,0.00,VWS V14.01,2013-03-17 18:25:00,
2013-03-17 13:30:00,27.0,17.9,30.22,ENE,68,6.0,11.0,68,0.00,,BKN028,0.00,VWS V14.01,2013-03-17 18:30:00,
2013-03-17 13:35:00,26.9,17.4,30.22,ENE,68,5.0,11.0,67,0.00,,BKN028,0.00,VWS V14.01,2013-03-17 18:35:00,
2013-03-17 13:40:00,26.5,16.7,30.22,ENE,68,6.0,12.0,66,0.00,,BKN028,0.00,VWS V14.01,2013-03-17 18:40:00,
2013-03-17 13:45:00,26.6,17.5,30.21,East,90,4.0,11.0,68,0.00,,BKN028,0.00,VWS V14.01,2013-03-17 18:45:00,
2013-03-17 13:50:00,27.2,17.4,30.21,East,90,7.0,11.0,66,0.00,,BKN028,0.00,VWS V14.01,2013-03-17 18:50:00,
2013-03-17 13:55:00,26.8,17.0,30.21,ENE,68,6.0,11.0,66,0.00,,BKN028,0.00,VWS V14.01,2013-03-17 18:55:00,
2013-03-17 14:00:00,26.5,17.0,30.20,ENE,68,6.0,11.0,67,0.00,,BKN028,0.00,VWS V14.01,2013-03-17 19:00:00,
2013-03-17 14:05:00,26.5,17.4,30.20,ENE,68,4.0,11.0,68,0.00,,BKN028,0.00,VWS V14.01,2013-03-17 19:05:00,
2013-03-17 14:10:00,26.8,17.0,30.20,ENE,68,4.0,11.0,66,0.00,,BKN028,0.00,VWS V14.01,2013-03-17 19:10:00,
2013-03-17 14:15:00,26.7,17.6,30.19,ENE,68,6.0,10.0,68,0.00,,BKN028,0.00,VWS V14.01,2013-03-17 19:15:00,
2013-03-17 14:20:00,27.1,18.0,30.18,East,90,5.0,11.0,68,0.00,,BKN028,0.00,VWS V14.01,2013-03-17 19:20:00,
2013-03-17 14:25:00,27.4,17.5,30.18,East,90,7.0,10.0,66,0.00,,BKN028,0.00,VWS V14.01,2013-03-17 19:25:00,
2013-03-17 14:30:00,27.1,16.9,30.17,NE,45,6.0,13.0,65,0.00,,BKN028,0.00,VWS V14.01,2013-03-17 19:30:00,
2013-03-17 14:35:00,26.9,17.4,30.17,ENE,68,5.0,12.0,67,0.00,,BKN028,0.00,VWS V14.01,2013-03-17 19:35:00,
2013-03-17 14:40:00,26.8,17.0,30.17,ENE,68,6.0,11.0,66,0.00,,BKN028,0.00,VWS V14.01,2013-03-17 19:40:00,
2013-03-17 14:45:00,26.7,17.2,30.17,ENE,68,6.0,13.0,67,0.00,,BKN028,0.00,VWS V14.01,2013-03-17 19:45:00,
2013-03-17 14:50:00,26.9,17.4,30.17,East,90,6.0,10.0,67,0.00,,FEW070,0.00,VWS V14.01,2013-03-17 19:50:00,
2013-03-17 14:56:00,26.9,17.4,30.17,East,90,6.0,10.0,67,0.00,,BKN028,0.00,VWS V14.01,2013-03-17 19:56:00,
2013-03-17 15:00:00,27.2,17.7,30.16,East,90,9.0,9.0,67,0.00,,FEW070,0.00,VWS V14.01,2013-03-17 20:00:00,
2013-03-17 15:01:00,27.2,17.7,30.16,East,100,7.0,9.0,67,0.00,,BKN028,0.00,VWS V14.01,2013-03-17 20:01:00,
2013-03-17 15:05:00,27.2,17.7,30.16,NE,56,4.0,10.0,67,0.00,,FEW070,0.00,VWS V14.01,2013-03-17 20:05:00,
2013-03-17 15:06:00,27.4,18.6,30.16,ENE,78,5.0,10.0,69,0.00,,BKN028,0.00,VWS V14.01,2013-03-17 20:06:00,
2013-03-17 15:10:00,27.4,18.2,30.16,East,96,7.0,11.0,68,0.00,,FEW070,0.00,VWS V14.01,2013-03-17 20:10:00,
2013-03-17 15:11:00,27.1,18.0,30.16,ENE,74,7.0,11.0,68,0.00,,BKN028,0.00,VWS V14.01,2013-03-17 20:11:00,
2013-03-17 15:15:00,27.0,17.5,30.16,East,88,6.0,10.0,67,0.00,,FEW070,0.00,VWS V14.01,2013-03-17 20:15:00,
2013-03-17 15:16:00,27.4,18.6,30.16,East,95,7.0,10.0,69,0.00,,BKN028,0.00,VWS V14.01,2013-03-17 20:16:00,
2013-03-17 15:20:00,27.3,18.1,30.16,East,87,7.0,12.0,68,0.00,,FEW070,0.00,VWS V14.01,2013-03-17 20:20:00,
2013-03-17 15:22:00,27.2,18.4,30.16,ENE,74,10.0,10.0,69,0.00,,BKN028,0.00,VWS V14.01,2013-03-17 20:22:00,
2013-03-17 15:25:00,27.2,18.4,30.17,East,84,5.0,10.0,69,0.00,,FEW070,0.00,VWS V14.01,2013-03-17 20:25:00,
2013-03-17 15:28:00,27.6,19.1,30.16,East,93,10.0,10.0,70,0.00,,BKN028,0.00,VWS V14.01,2013-03-17 20:28:00,
2013-03-17 15:30:00,27.5,18.7,30.16,East,81,6.0,10.0,69,0.00,,FEW070,0.00,VWS V14.01,2013-03-17 20:30:00,
2013-03-17 15:33:00,27.2,18.0,30.16,East,92,5.0,11.0,68,0.00,,BKN028,0.00,VWS V14.01,2013-03-17 20:33:00,
2013-03-17 15:35:00,27.1,18.3,30.16,ENE,69,3.0,11.0,69,0.00,,FEW070,0.00,VWS V14.01,2013-03-17 20:35:00,
2013-03-17 15:38:00,27.3,18.8,30.16,ENE,69,2.0,8.0,70,0.00,,BKN028,0.00,VWS V14.01,2013-03-17 20:38:00,
2013-03-17 15:40:00,27.4,18.6,30.16,ENE,71,5.0,8.0,69,0.00,,FEW070,0.00,VWS V14.01,2013-03-17 20:40:00,
2013-03-17 15:43:00,27.5,18.7,30.16,East,88,9.0,10.0,69,0.00,,BKN028,0.00,VWS V14.01,2013-03-17 20:43:00,
2013-03-17 15:46:00,27.4,18.6,30.16,ENE,67,9.0,10.0,69,0.00,,FEW070,0.00,VWS V14.01,2013-03-17 20:46:00,
2013-03-17 15:48:00,27.4,18.9,30.16,East,98,6.0,11.0,70,0.00,,BKN028,0.00,VWS V14.01,2013-03-17 20:48:00,
2013-03-17 15:50:00,27.4,18.9,30.16,East,90,9.0,11.0,70,0.00,,FEW070,0.00,VWS V14.01,2013-03-17 20:50:00,
2013-03-17 15:53:00,27.4,18.9,30.16,ENE,57,3.0,9.0,70,0.00,,BKN028,0.00,VWS V14.01,2013-03-17 20:53:00,
2013-03-17 15:55:00,27.4,18.9,30.16,ENE,63,2.0,9.0,70,0.00,,FEW070,0.00,VWS V14.01,2013-03-17 20:55:00,
2013-03-17 15:58:00,27.2,18.7,30.16,East,90,7.0,10.0,70,0.00,,BKN028,0.00,VWS V14.01,2013-03-17 20:58:00,
2013-03-17 16:00:00,27.2,18.7,30.16,East,98,9.0,10.0,70,0.00,,FEW070,0.00,VWS V14.01,2013-03-17 21:00:00,
2013-03-17 16:04:00,27.1,18.6,30.16,ENE,63,5.0,10.0,70,0.00,,BKN028,0.00,VWS V14.01,2013-03-17 21:04:00,
2013-03-17 16:05:00,27.1,18.6,30.16,NNE,26,4.0,10.0,70,0.00,,FEW070,0.00,VWS V14.01,2013-03-17 21:05:00,
2013-03-17 16:09:00,27.2,19.1,30.16,ENE,59,1.0,11.0,71,0.00,,BKN028,0.00,VWS V14.01,2013-03-17 21:09:00,
2013-03-17 16:10:00,27.2,19.1,30.16,NNE,27,4.0,11.0,71,0.00,,FEW070,0.00,VWS V14.01,2013-03-17 21:10:00,
2013-03-17 16:14:00,27.1,19.0,30.16,East,81,8.0,10.0,71,0.00,,BKN028,0.00,VWS V14.01,2013-03-17 21:14:00,
2013-03-17 16:15:00,27.1,19.0,30.16,East,81,8.0,10.0,71,0.00,,FEW070,0.00,VWS V14.01,2013-03-17 21:15:00,
2013-03-17 16:19:00,27.1,18.6,30.16,East,101,3.0,10.0,70,0.00,,BKN028,0.00,VWS V14.01,2013-03-17 21:19:00,
2013-03-17 16:20:00,27.1,18.6,30.16,East,101,3.0,10.0,70,0.00,,FEW070,0.00,VWS V14.01,2013-03-17 21:20:00,
2013-03-17 16:24:00,27.5,19.4,30.16,ESE,119,3.0,9.0,71,0.00,,BKN028,0.00,VWS V14.01,2013-03-17 21:24:00,
2013-03-17 16:25:00,27.5,19.4,30.16,ESE,119,3.0,9.0,71,0.00,,FEW250,0.00,VWS V14.01,2013-03-17 21:25:00,
2013-03-17 16:29:00,27.9,19.4,30.16,East,87,3.0,5.0,70,0.00,,BKN028,0.00,VWS V14.01,2013-03-17 21:29:00,
2013-03-17 16:30:00,27.9,19.4,30.16,East,87,3.0,5.0,70,0.00,,FEW250,0.00,VWS V14.01,2013-03-17 21:30:00,
2013-03-17 16:34:00,27.8,19.3,30.16,East,94,7.0,8.0,70,0.00,,BKN028,0.00,VWS V14.01,2013-03-17 21:34:00,
2013-03-17 16:35:00,27.8,19.3,30.16,East,94,7.0,8.0,70,0.00,,FEW070,0.00,VWS V14.01,2013-03-17 21:35:00,
2013-03-17 16:39:00,27.5,19.0,30.16,East,88,5.0,11.0,70,0.00,,BKN028,0.00,VWS V14.01,2013-03-17 21:39:00,
2013-03-17 16:40:00,27.5,19.0,30.16,East,88,5.0,11.0,70,0.00,,FEW070,0.00,VWS V14.01,2013-03-17 21:40:00,
2013-03-17 16:44:00,27.5,19.4,30.16,East,86,5.0,8.0,71,0.00,,BKN028,0.00,VWS V14.01,2013-03-17 21:44:00,
2013-03-17 16:45:00,27.5,19.4,30.16,East,86,5.0,8.0,71,0.00,,FEW070,0.00,VWS V14.01,2013-03-17 21:45:00,
2013-03-17 16:49:00,27.5,19.4,30.16,East,80,2.0,13.0,71,0.00,,BKN028,0.00,VWS V14.01,2013-03-17 21:49:00,
2013-03-17 16:50:00,27.5,19.4,30.16,East,80,2.0,13.0,71,0.00,,FEW070,0.00,VWS V14.01,2013-03-17 21:50:00,
2013-03-17 16:54:00,27.5,19.4,30.15,East,87,6.0,10.0,71,0.00,,BKN028,0.00,VWS V14.01,2013-03-17 21:54:00,
2013-03-17 16:55:00,27.5,19.4,30.15,East,87,6.0,10.0,71,0.00,,FEW070,0.00,VWS V14.01,2013-03-17 21:55:00,
2013-03-17 16:59:00,27.5,19.0,30.16,ESE,112,0.0,11.0,70,0.00,,BKN028,0.00,VWS V14.01,2013-03-17 21:59:00,
2013-03-17 17:00:00,27.5,19.0,30.16,ESE,112,0.0,11.0,70,0.00,,FEW070,0.00,VWS V14.01,2013-03-17 22:00:00,
2013-03-17 17:04:00,27.3,18.8,30.15,East,80,3.0,10.0,70,0.00,,BKN028,0.00,VWS V14.01,2013-03-17 22:04:00,
2013-03-17 17:05:00,27.3,18.8,30.16,East,85,3.0,10.0,70,0.00,,FEW070,0.00,VWS V14.01,2013-03-17 22:05:00,
2013-03-17 17:09:00,27.3,18.8,30.15,ENE,67,7.0,7.0,70,0.00,,BKN028,0.00,VWS V14.01,2013-03-17 22:09:00,
2013-03-17 17:10:00,27.3,18.8,30.15,East,90,5.0,7.0,70,0.00,,FEW070,0.00,VWS V14.01,2013-03-17 22:10:00,
2013-03-17 17:14:00,27.4,18.9,30.15,East,97,1.0,7.0,70,0.00,,BKN028,0.00,VWS V14.01,2013-03-17 22:14:00,
2013-03-17 17:15:00,27.4,18.9,30.15,East,98,0.0,10.0,70,0.00,,FEW070,0.00,VWS V14.01,2013-03-17 22:15:00,
2013-03-17 17:20:00,27.4,18.9,30.15,ENE,71,7.0,9.0,70,0.00,,BKN028,0.00,VWS V14.01,2013-03-17 22:20:00,
2013-03-17 17:25:00,27.1,18.3,30.15,ENE,78,5.0,10.0,69,0.00,,BKN028,0.00,VWS V14.01,2013-03-17 22:25:00,
2013-03-17 17:30:00,27.4,18.9,30.14,ESE,107,0.0,10.0,70,0.00,,BKN028,0.00,VWS V14.01,2013-03-17 22:30:00,
2013-03-17 17:35:00,27.6,18.4,30.14,East,86,9.0,9.0,68,0.00,,BKN030,0.00,VWS V14.01,2013-03-17 22:35:00,
2013-03-17 17:40:00,27.7,18.9,30.14,ENE,68,4.0,10.0,69,0.00,,BKN030,0.00,VWS V14.01,2013-03-17 22:40:00,
2013-03-17 17:45:00,27.8,18.6,30.14,East,83,3.0,9.0,68,0.00,,BKN030,0.00,VWS V14.01,2013-03-17 22:45:00,
2013-03-17 17:50:00,27.8,19.0,30.13,ESE,104,9.0,10.0,69,0.00,,BKN030,0.00,VWS V14.01,2013-03-17 22:50:00,
2013-03-17 17:55:00,27.7,18.9,30.13,East,82,7.0,10.0,69,0.00,,BKN030,0.00,VWS V14.01,2013-03-17 22:55:00,
2013-03-17 18:00:00,27.8,19.3,30.12,ENE,75,7.0,10.0,70,0.00,,FEW070,0.00,VWS V14.01,2013-03-17 23:00:00,
2013-03-17 18:01:00,27.8,19.3,30.12,East,96,7.0,11.0,70,0.00,,BKN030,0.00,VWS V14.01,2013-03-17 23:01:00,
2013-03-17 18:05:00,28.0,19.5,30.12,ENE,67,5.0,10.0,70,0.00,,FEW070,0.00,VWS V14.01,2013-03-17 23:05:00,
2013-03-17 18:06:00,27.9,19.1,30.12,East,81,8.0,10.0,69,0.00,,BKN250,0.00,VWS V14.01,2013-03-17 23:06:00,
2013-03-17 18:10:00,27.8,19.0,30.12,ENE,69,5.0,10.0,69,0.00,,FEW070,0.00,VWS V14.01,2013-03-17 23:10:00,
2013-03-17 18:11:00,27.9,19.7,30.12,NE,34,5.0,9.0,71,0.00,,BKN250,0.00,VWS V14.01,2013-03-17 23:11:00,
2013-03-17 18:15:00,27.9,19.4,30.12,NE,34,3.0,11.0,70,0.00,,FEW070,0.00,VWS V14.01,2013-03-17 23:15:00,
2013-03-17 18:16:00,28.0,19.5,30.12,East,80,3.0,10.0,70,0.00,,BKN250,0.00,VWS V14.01,2013-03-17 23:16:00,
2013-03-17 18:20:00,28.0,19.8,30.12,East,92,7.0,10.0,71,0.00,,FEW070,0.00,VWS V14.01,2013-03-17 23:20:00,
2013-03-17 18:21:00,28.1,20.2,30.12,ENE,59,4.0,11.0,72,0.00,,BKN250,0.00,VWS V14.01,2013-03-17 23:21:00,
2013-03-17 18:25:00,28.1,20.2,30.12,NE,56,1.0,11.0,72,0.00,,FEW070,0.00,VWS V14.01,2013-03-17 23:25:00,
2013-03-17 18:26:00,28.1,19.9,30.12,NE,42,3.0,9.0,71,0.00,,BKN250,0.00,VWS V14.01,2013-03-17 23:26:00,
2013-03-17 18:30:00,28.0,19.8,30.12,East,79,8.0,10.0,71,0.00,,FEW070,0.00,VWS V14.01,2013-03-17 23:30:00,
2013-03-17 18:31:00,27.9,20.1,30.12,ENE,70,7.0,11.0,72,0.00,,BKN250,0.00,VWS V14.01,2013-03-17 23:31:00,
2013-03-17 18:35:00,27.8,20.0,30.12,ENE,77,8.0,11.0,72,0.00,,FEW070,0.00,VWS V14.01,2013-03-17 23:35:00,
2013-03-17 18:36:00,27.8,20.0,30.12,ENE,78,7.0,11.0,72,0.00,,BKN250,0.00,VWS V14.01,2013-03-17 23:36:00,
2013-03-17 18:40:00,27.9,20.4,30.11,East,92,9.0,11.0,73,0.00,,FEW070,0.00,VWS V14.01,2013-03-17 23:40:00,
2013-03-17 18:42:00,27.9,20.4,30.12,ENE,63,5.0,11.0,73,0.00,,BKN250,0.00,VWS V14.01,2013-03-17 23:42:00,
2013-03-17 18:45:00,27.9,20.4,30.12,East,95,8.0,11.0,73,0.00,,FEW070,0.00,VWS V14.01,2013-03-17 23:45:00,
2013-03-17 18:47:00,28.0,20.8,30.12,East,89,7.0,11.0,74,0.00,,BKN250,0.00,VWS V14.01,2013-03-17 23:47:00,
2013-03-17 18:50:00,28.1,20.9,30.12,East,87,7.0,13.0,74,0.00,,FEW070,0.00,VWS V14.01,2013-03-17 23:50:00,
2013-03-17 18:52:00,28.0,20.5,30.12,NE,55,6.0,11.0,73,0.00,,BKN250,0.00,VWS V14.01,2013-03-17 23:52:00,
2013-03-17 18:55:00,28.0,20.8,30.12,NNE,21,5.0,9.0,74,0.00,,FEW070,0.00,VWS V14.01,2013-03-17 23:55:00,
2013-03-17 18:57:00,28.0,20.8,30.11,ENE,74,8.0,14.0,74,0.00,,BKN250,0.00,VWS V14.01,2013-03-17 23:57:00,
2013-03-17 19:00:00,27.9,20.7,30.11,East,93,9.0,14.0,74,0.00,,FEW070,0.00,VWS V14.01,2013-03-18 00:00:00,
2013-03-17 19:02:00,27.9,20.7,30.11,NE,46,6.0,12.0,74,0.00,,BKN250,0.00,VWS V14.01,2013-03-18 00:02:00,
2013-03-17 19:05:00,27.9,21.0,30.11,NNE,22,4.0,12.0,75,0.00,,FEW070,0.00,VWS V14.01,2013-03-18 00:05:00,
2013-03-17 19:07:00,27.9,21.0,30.11,NE,49,8.0,14.0,75,0.00,,BKN250,0.00,VWS V14.01,2013-03-18 00:07:00,
2013-03-17 19:10:00,27.8,20.6,30.11,ENE,77,10.0,14.0,74,0.00,,FEW070,0.00,VWS V14.01,2013-03-18 00:10:00,
2013-03-17 19:13:00,27.8,20.6,30.11,NNE,26,8.0,14.0,74,0.00,,BKN250,0.00,VWS V14.01,2013-03-18 00:13:00,
2013-03-17 19:15:00,27.8,20.9,30.11,NE,42,2.0,14.0,75,0.00,,FEW070,0.00,VWS V14.01,2013-03-18 00:15:00,
2013-03-17 19:18:00,27.8,20.9,30.11,ENE,71,4.0,12.0,75,0.00,,BKN250,0.00,VWS V14.01,2013-03-18 00:18:00,
2013-03-17 19:20:00,27.8,20.9,30.11,ENE,61,8.0,12.0,75,0.00,,FEW070,0.00,VWS V14.01,2013-03-18 00:20:00,
2013-03-17 19:23:00,27.8,20.9,30.11,East,90,6.0,14.0,75,0.00,,BKN250,0.00,VWS V14.01,2013-03-18 00:23:00,
2013-03-17 19:25:00,27.8,20.9,30.11,NNE,26,7.0,14.0,75,0.00,,FEW070,0.00,VWS V14.01,2013-03-18 00:25:00,
2013-03-17 19:28:00,27.9,21.3,30.11,East,88,5.0,14.0,76,0.00,,BKN250,0.00,VWS V14.01,2013-03-18 00:28:00,
2013-03-17 19:30:00,27.9,21.3,30.11,East,89,10.0,14.0,76,0.00,,FEW070,0.00,VWS V14.01,2013-03-18 00:30:00,
2013-03-17 19:33:00,28.0,21.4,30.11,ENE,73,4.0,15.0,76,0.00,,BKN250,0.00,VWS V14.01,2013-03-18 00:33:00,
2013-03-17 19:35:00,28.0,21.4,30.11,East,92,10.0,15.0,76,0.00,,FEW070,0.00,VWS V14.01,2013-03-18 00:35:00,
2013-03-17 19:38:00,28.1,21.5,30.11,East,83,6.0,14.0,76,0.00,,BKN250,0.00,VWS V14.01,2013-03-18 00:38:00,
2013-03-17 19:40:00,28.1,21.5,30.11,East,96,8.0,14.0,76,0.00,,FEW070,0.00,VWS V14.01,2013-03-18 00:40:00,
2013-03-17 19:44:00,28.2,21.6,30.11,East,90,9.0,14.0,76,0.00,,BKN250,0.00,VWS V14.01,2013-03-18 00:44:00,
2013-03-17 19:45:00,28.2,21.6,30.11,East,88,9.0,14.0,76,0.00,,FEW070,0.00,VWS V14.01,2013-03-18 00:45:00,
2013-03-17 19:49:00,28.2,21.6,30.11,East,92,7.0,14.0,76,0.00,,BKN250,0.00,VWS V14.01,2013-03-18 00:49:00,
2013-03-17 19:50:00,28.1,21.5,30.11,East,90,11.0,14.0,76,0.00,,FEW070,0.00,VWS V14.01,2013-03-18 00:50:00,
2013-03-17 19:54:00,28.2,21.6,30.11,East,92,9.0,15.0,76,0.00,,BKN250,0.00,VWS V14.01,2013-03-18 00:54:00,
2013-03-17 19:55:00,28.2,21.6,30.11,ENE,70,9.0,15.0,76,0.00,,FEW070,0.00,VWS V14.01,2013-03-18 00:55:00,
2013-03-17 19:59:00,28.2,21.6,30.10,East,90,17.0,17.0,76,0.00,,BKN250,0.00,VWS V14.01,2013-03-18 00:59:00,
2013-03-17 20:00:00,28.2,21.6,30.10,East,90,17.0,17.0,76,0.00,,FEW070,0.00,VWS V14.01,2013-03-18 01:00:00,
2013-03-17 20:04:00,28.2,21.6,30.10,East,96,9.0,15.0,76,0.00,,SCT250,0.00,VWS V14.01,2013-03-18 01:04:00,
2013-03-17 20:05:00,28.2,21.3,30.10,ESE,105,12.0,16.0,75,0.00,,FEW070,0.00,VWS V14.01,2013-03-18 01:05:00,
2013-03-17 20:09:00,28.3,21.7,30.10,East,82,9.0,16.0,76,0.00,,SCT250,0.00,VWS V14.01,2013-03-18 01:09:00,
2013-03-17 20:10:00,28.3,21.7,30.10,ENE,76,9.0,16.0,76,0.00,,FEW070,0.00,VWS V14.01,2013-03-18 01:10:00,
2013-03-17 20:14:00,28.3,21.7,30.10,East,91,13.0,16.0,76,0.00,,SCT250,0.00,VWS V14.01,2013-03-18 01:14:00,
2013-03-17 20:15:00,28.3,21.7,30.10,East,84,8.0,16.0,76,0.00,,FEW070,0.00,VWS V14.01,2013-03-18 01:15:00,
2013-03-17 20:20:00,28.3,21.7,30.10,East,80,11.0,15.0,76,0.00,,SCT250,0.00,VWS V14.01,2013-03-18 01:20:00,
2013-03-17 20:25:00,28.4,22.4,30.10,NE,51,10.0,17.0,78,0.00,,SCT250,0.00,VWS V14.01,2013-03-18 01:25:00,
2013-03-17 20:30:00,28.5,22.5,30.10,ENE,74,12.0,16.0,78,0.00,,SCT250,0.00,VWS V14.01,2013-03-18 01:30:00,
2013-03-17 20:35:00,28.6,22.3,30.10,East,94,13.0,16.0,77,0.00,,SCT250,0.00,VWS V14.01,2013-03-18 01:35:00,
2013-03-17 20:40:00,28.7,22.4,30.10,East,99,14.0,18.0,77,0.00,,SCT250,0.00,VWS V14.01,2013-03-18 01:40:00,
2013-03-17 20:45:00,28.7,22.7,30.09,East,98,13.0,17.0,78,0.00,,SCT250,0.00,VWS V14.01,2013-03-18 01:45:00,
2013-03-17 20:50:00,28.8,22.8,30.09,ENE,72,11.0,18.0,78,0.00,,FEW070,0.00,VWS V14.01,2013-03-18 01:50:00,
2013-03-17 20:51:00,28.8,22.8,30.09,East,81,10.0,19.0,78,0.00,,SCT250,0.00,VWS V14.01,2013-03-18 01:51:00,
2013-03-17 20:55:00,28.9,22.9,30.09,East,98,15.0,19.0,78,0.00,,FEW070,0.00,VWS V14.01,2013-03-18 01:55:00,
2013-03-17 20:56:00,29.0,23.0,30.09,East,91,15.0,18.0,78,0.00,,SCT250,0.00,VWS V14.01,2013-03-18 01:56:00,
2013-03-17 21:00:00,29.1,23.1,30.08,East,95,9.0,17.0,78,0.00,,FEW070,0.00,VWS V14.01,2013-03-18 02:00:00,
2013-03-17 21:01:00,29.1,23.1,30.09,NE,51,9.0,16.0,78,0.00,,SCT250,0.00,VWS V14.01,2013-03-18 02:01:00,
2013-03-17 21:05:00,29.2,23.2,30.08,East,96,13.0,18.0,78,0.00,,FEW070,0.00,VWS V14.01,2013-03-18 02:05:00,
2013-03-17 21:07:00,29.3,23.6,30.08,East,88,6.0,18.0,79,0.00,,SCT250,0.00,VWS V14.01,2013-03-18 02:07:00,
2013-03-17 21:10:00,29.4,23.7,30.08,East,101,9.0,16.0,79,0.00,,FEW070,0.00,VWS V14.01,2013-03-18 02:10:00,
2013-03-17 21:12:00,29.5,23.5,30.08,East,90,15.0,16.0,78,0.00,,SCT250,0.00,VWS V14.01,2013-03-18 02:12:00,
2013-03-17 21:15:00,29.6,23.6,30.08,ESE,106,10.0,16.0,78,0.00,,FEW070,0.00,VWS V14.01,2013-03-18 02:15:00,
2013-03-17 21:17:00,29.7,24.0,30.08,ENE,78,11.0,16.0,79,0.00,,SCT250,0.00,VWS V14.01,2013-03-18 02:17:00,
2013-03-17 21:20:00,29.7,23.7,30.08,East,83,11.0,15.0,78,0.00,,FEW070,0.00,VWS V14.01,2013-03-18 02:20:00,
2013-03-17 21:22:00,29.8,24.1,30.07,SE,139,8.0,16.0,79,0.00,,SCT250,0.00,VWS V14.01,2013-03-18 02:22:00,
2013-03-17 21:25:00,29.9,24.2,30.07,East,91,11.0,16.0,79,0.00,,FEW070,0.00,VWS V14.01,2013-03-18 02:25:00,
2013-03-17 21:28:00,30.1,24.1,30.07,East,100,14.0,16.0,78,0.00,,SCT250,0.00,VWS V14.01,2013-03-18 02:28:00,
2013-03-17 21:30:00,30.2,23.6,30.07,East,89,6.0,16.0,76,0.00,,FEW070,0.00,VWS V14.01,2013-03-18 02:30:00,
2013-03-17 21:33:00,30.3,23.0,30.07,East,100,8.0,17.0,74,0.00,,SCT250,0.00,VWS V14.01,2013-03-18 02:33:00,
2013-03-17 21:35:00,30.3,23.0,30.07,ESE,113,9.0,17.0,74,0.00,,FEW070,0.00,VWS V14.01,2013-03-18 02:35:00,
2013-03-17 21:38:00,30.4,23.1,30.07,ESE,103,8.0,15.0,74,0.00,,SCT250,0.00,VWS V14.01,2013-03-18 02:38:00,
2013-03-17 21:40:00,30.4,23.1,30.07,East,92,8.0,15.0,74,0.00,,FEW070,0.00,VWS V14.01,2013-03-18 02:40:00,
2013-03-17 21:43:00,30.4,22.8,30.07,East,92,3.0,14.0,73,0.00,,SCT250,0.00,VWS V14.01,2013-03-18 02:43:00,
2013-03-17 21:45:00,30.4,23.1,30.07,East,90,6.0,14.0,74,0.00,,FEW070,0.00,VWS V14.01,2013-03-18 02:45:00,
2013-03-17 21:48:00,30.4,22.8,30.06,ENE,65,2.0,17.0,73,0.00,,SCT250,0.00,VWS V14.01,2013-03-18 02:48:00,
2013-03-17 21:50:00,30.4,22.8,30.06,ESE,122,12.0,17.0,73,0.00,,FEW070,0.00,VWS V14.01,2013-03-18 02:50:00,
2013-03-17 21:53:00,30.4,23.1,30.06,ESE,118,3.0,14.0,74,0.00,,SCT250,0.00,VWS V14.01,2013-03-18 02:53:00,
2013-03-17 21:55:00,30.4,23.1,30.06,East,97,6.0,14.0,74,0.00,,FEW070,0.00,VWS V14.01,2013-03-18 02:55:00,
2013-03-17 21:58:00,30.4,23.1,30.06,SE,139,2.0,16.0,74,0.00,,SCT250,0.00,VWS V14.01,2013-03-18 02:58:00,
2013-03-17 22:00:00,30.4,23.1,30.06,East,96,5.0,16.0,74,0.00,,FEW070,0.00,VWS V14.01,2013-03-18 03:00:00,
2013-03-17 22:03:00,30.4,23.4,30.05,East,86,15.0,18.0,75,0.00,,SCT250,0.00,VWS V14.01,2013-03-18 03:03:00,
2013-03-17 22:05:00,30.4,23.1,30.05,East,101,9.0,18.0,74,0.00,,FEW070,0.00,VWS V14.01,2013-03-18 03:05:00,
2013-03-17 22:09:00,30.4,23.4,30.05,ESE,121,7.0,13.0,75,0.00,,SCT250,0.00,VWS V14.01,2013-03-18 03:09:00,
2013-03-17 22:10:00,30.4,23.8,30.05,East,85,8.0,13.0,76,0.00,,FEW070,0.00,VWS V14.01,2013-03-18 03:10:00,
2013-03-17 22:14:00,30.4,24.1,30.05,ESE,115,12.0,12.0,77,0.00,,SCT250,0.00,VWS V14.01,2013-03-18 03:14:00,
2013-03-17 22:15:00,30.4,24.1,30.05,SE,133,5.0,18.0,77,0.00,,FEW070,0.00,VWS V14.01,2013-03-18 03:15:00,
2013-03-17 22:19:00,30.3,24.0,30.05,ESE,121,7.0,13.0,77,0.00,,SCT250,0.00,VWS V14.01,2013-03-18 03:19:00,
2013-03-17 22:20:00,30.3,24.0,30.05,ESE,107,5.0,13.0,77,0.00,,FEW070,0.00,VWS V14.01,2013-03-18 03:20:00,
2013-03-17 22:24:00,30.3,24.3,30.05,East,96,2.0,14.0,78,0.00,,SCT250,0.00,VWS V14.01,2013-03-18 03:24:00,
2013-03-17 22:25:00,30.3,24.3,30.05,East,96,2.0,14.0,78,0.00,,FEW070,0.00,VWS V14.01,2013-03-18 03:25:00,
2013-03-17 22:29:00,30.3,24.3,30.05,East,92,5.0,13.0,78,0.00,,SCT250,0.00,VWS V14.01,2013-03-18 03:29:00,
2013-03-17 22:30:00,30.3,24.3,30.05,East,92,5.0,13.0,78,0.00,,FEW070,0.00,VWS V14.01,2013-03-18 03:30:00,
2013-03-17 22:34:00,30.3,24.3,30.05,SE,134,6.0,16.0,78,0.00,,SCT250,0.00,VWS V14.01,2013-03-18 03:34:00,
2013-03-17 22:35:00,30.3,24.3,30.05,SE,134,6.0,16.0,78,0.00,,FEW070,0.00,VWS V14.01,2013-03-18 03:35:00,
2013-03-17 22:39:00,30.3,24.3,30.05,ENE,65,9.0,20.0,78,0.00,,SCT250,0.00,VWS V14.01,2013-03-18 03:39:00,
2013-03-17 22:40:00,30.3,24.3,30.05,ENE,65,9.0,20.0,78,0.00,,FEW070,0.00,VWS V14.01,2013-03-18 03:40:00,
2013-03-17 22:44:00,30.3,24.3,30.05,ESE,123,8.0,16.0,78,0.00,,SCT250,0.00,VWS V14.01,2013-03-18 03:44:00,
2013-03-17 22:45:00,30.3,24.3,30.05,ESE,123,8.0,16.0,78,0.00,,FEW070,0.00,VWS V14.01,2013-03-18 03:45:00,
2013-03-17 22:49:00,30.3,24.3,30.04,ESE,122,10.0,16.0,78,0.00,,SCT250,0.00,VWS V14.01,2013-03-18 03:49:00,
2013-03-17 22:50:00,30.3,24.3,30.04,ESE,122,10.0,16.0,78,0.00,,FEW070,0.00,VWS V14.01,2013-03-18 03:50:00,
2013-03-17 22:54:00,30.3,24.3,30.05,SE,132,10.0,16.0,78,0.00,,SCT250,0.00,VWS V14.01,2013-03-18 03:54:00,
2013-03-17 22:55:00,30.3,24.3,30.05,SE,132,10.0,16.0,78,0.00,,FEW070,0.00,VWS V14.01,2013-03-18 03:55:00,
2013-03-17 22:59:00,30.4,25.0,30.04,East,94,8.0,17.0,80,0.00,,SCT250,0.00,VWS V14.01,2013-03-18 03:59:00,
2013-03-17 23:00:00,30.4,24.7,30.04,SE,140,6.0,17.0,79,0.00,,SCT250,0.00,VWS V14.01,2013-03-18 04:00:00,
2013-03-17 23:02:00,30.5,25.1,30.04,East,98,3.0,12.0,80,0.00,,BKN250,0.00,VWS V14.01,2013-03-18 04:02:00,
2013-03-17 23:03:00,30.5,25.1,30.04,ESE,123,10.0,14.0,80,0.00,,BKN250,0.00,VWS V14.01,2013-03-18 04:03:00,
2013-03-17 23:05:00,30.5,25.1,30.04,East,80,8.0,16.0,80,0.00,,FEW070,0.00,VWS V14.01,2013-03-18 04:05:00,
2013-03-17 23:08:00,30.5,25.1,30.04,SE,136,7.0,11.0,80,0.00,,BKN250,0.00,VWS V14.01,2013-03-18 04:08:00,
2013-03-17 23:10:00,30.5,25.1,30.04,ESE,121,7.0,12.0,80,0.00,,FEW070,0.00,VWS V14.01,2013-03-18 04:10:00,
2013-03-17 23:13:00,30.4,24.7,30.03,ESE,105,10.0,15.0,79,0.00,,BKN250,0.00,VWS V14.01,2013-03-18 04:13:00,
2013-03-17 23:15:00,30.5,24.8,30.03,ESE,115,7.0,15.0,79,0.00,,FEW070,0.00,VWS V14.01,2013-03-18 04:15:00,
2013-03-17 23:18:00,30.5,25.1,30.03,SSE,154,7.0,15.0,80,0.00,,BKN250,0.00,VWS V14.01,2013-03-18 04:18:00,
2013-03-17 23:20:00,30.5,24.8,30.03,SE,135,6.0,15.0,79,0.00,,FEW070,0.00,VWS V14.01,2013-03-18 04:20:00,
2013-03-17 23:23:00,30.5,24.8,30.03,East,90,6.0,15.0,79,0.00,,BKN250,0.00,VWS V14.01,2013-03-18 04:23:00,
2013-03-17 23:25:00,30.5,24.8,30.03,ESE,117,8.0,15.0,79,0.00,,FEW070,0.00,VWS V14.01,2013-03-18 04:25:00,
2013-03-17 23:28:00,30.5,24.8,30.03,ESE,107,8.0,14.0,79,0.00,,BKN250,0.00,VWS V14.01,2013-03-18 04:28:00,
2013-03-17 23:30:00,30.5,24.8,30.03,SE,144,5.0,14.0,79,0.00,,FEW070,0.00,VWS V14.01,2013-03-18 04:30:00,
2013-03-17 23:33:00,30.5,24.8,30.03,ESE,123,8.0,16.0,79,0.00,,BKN250,0.00,VWS V14.01,2013-03-18 04:33:00,
2013-03-17 23:35:00,30.5,24.8,30.03,East,82,8.0,16.0,79,0.00,,FEW070,0.00,VWS V14.01,2013-03-18 04:35:00,
2013-03-17 23:39:00,30.5,25.1,30.02,ESE,121,2.0,14.0,80,0.00,,BKN250,0.00,VWS V14.01,2013-03-18 04:39:00,
2013-03-17 23:40:00,30.5,25.1,30.02,East,85,7.0,14.0,80,0.00,,FEW070,0.00,VWS V14.01,2013-03-18 04:40:00,
2013-03-17 23:44:00,30.5,25.1,30.02,ESE,117,5.0,17.0,80,0.00,,BKN250,0.00,VWS V14.01,2013-03-18 04:44:00,
2013-03-17 23:45:00,30.5,25.1,30.02,ENE,78,3.0,17.0,80,0.00,,FEW070,0.00,VWS V14.01,2013-03-18 04:45:00,
2013-03-17 23:49:00,30.5,24.8,30.02,SE,144,8.0,16.0,79,0.00,,BKN250,0.00,VWS V14.01,2013-03-18 04:49:00,
2013-03-17 23:50:00,30.5,24.8,30.02,SE,131,4.0,16.0,79,0.00,,FEW070,0.00,VWS V14.01,2013-03-18 04:50:00,
2013-03-17 23:54:00,30.5,24.8,30.01,East,86,5.0,16.0,79,0.00,,BKN250,0.00,VWS V14.01,2013-03-18 04:54:00,
2013-03-17 23:55:00,30.5,24.8,30.01,ESE,123,5.0,16.0,79,0.00,,FEW070,0.00,VWS V14.01,2013-03-18 04:55:00,
2013-03-17 23:59:00,30.5,25.1,30.02,East,101,8.0,17.0,80,0.00,,BKN250,0.00,VWS V14.01,2013-03-18 04:59:00,